Zurück zum Katalog

USA 18

AktivMilitärLEO
NORAD 16631·PAYLOAD·🇺🇸 United States

Gestartet Feb 9, 1986 von Vandenberg Space Force Base

Loading…

Nächste Überflüge (nächste 24 Stunden)

TLE

AktuellSource: Space-Track

Epoche: Sep 14, 2026, 09:41 UTC

1 16631U 86014H   26257.40403214  .00006510  00000-0  41616-3 0  9999
2 16631  63.2938 136.5226 0744485 114.2741 253.7896 13.93513579356782

Verfolge USA 18 in Echtzeit mit AllMySat

Download on the App Store